This is the latest recevied weather packets stored in our database for station/object K7TSD. If no packets are shown the sender has not sent any weather packets the latest 10 day(s).
| Time | Temp. | Humidity | Pressure | Rain* | Wind** | Luminosity | Snow |
|---|---|---|---|---|---|---|---|
| 1778132788 | 3.89° C | 61% | 1007.8 hPa | 0 mm | - | 0 W/m² | - |
| 1778132485 | 4.44° C | 57% | 1008.1 hPa | 0 mm | - | 0 W/m² | - |
| 1778132183 | 3.89° C | 53% | 1008.2 hPa | 0 mm | - | 0 W/m² | - |
| 1778131881 | 3.89° C | 56% | 1008.1 hPa | 0 mm | - | 0 W/m² | - |
| 1778131579 | 3.33° C | 55% | 1008.4 hPa | 0 mm | - | 0 W/m² | - |
| 1778131275 | 3.89° C | 55% | 1008.4 hPa | 0 mm | - | 0 W/m² | - |
| 1778130973 | 2.78° C | 58% | 1008.6 hPa | 0 mm | - | 0 W/m² | - |
| 1778130670 | 2.78° C | 60% | 1008.6 hPa | 0 mm | - | 0 W/m² | - |
| 1778130366 | 2.78° C | 61% | 1008.6 hPa | 0 mm | - | 0 W/m² | - |
| 1778130063 | 3.33° C | 59% | 1008.6 hPa | 0 mm | - | 0 W/m² | - |
| 1778129760 | 3.33° C | 56% | 1008.7 hPa | 0 mm | - | 0 W/m² | - |
| 1778129457 | 2.78° C | 59% | 1008.7 hPa | 0 mm | - | 0 W/m² | - |
| 1778129153 | 2.78° C | 59% | 1008.6 hPa | 0 mm | - | 0 W/m² | - |
| 1778128851 | 3.33° C | 57% | 1008.7 hPa | 0 mm | - | 0 W/m² | - |
| 1778128546 | 2.78° C | 57% | 1008.6 hPa | 0 mm | - | 0 W/m² | - |
| 1778128244 | 3.33° C | 58% | 1008.5 hPa | 0 mm | - | 0 W/m² | - |
| 1778127939 | 3.33° C | 55% | 1008.7 hPa | 0 mm | - | 0 W/m² | - |
| 1778127635 | 3.89° C | 57% | 1008.7 hPa | 0 mm | - | 0 W/m² | - |
| 1778127333 | 3.33° C | 57% | 1008.7 hPa | 0 mm | - | 0 W/m² | - |
| 1778127029 | 3.89° C | 56% | 1008.6 hPa | 0 mm | - | 0 W/m² | - |
| 1778126726 | 2.78° C | 58% | 1008.5 hPa | 0 mm | - | 0 W/m² | - |
| 1778126421 | 4.44° C | 58% | 1008.9 hPa | 0 mm | - | 0 W/m² | - |
| 1778126118 | 3.89° C | 56% | 1008.6 hPa | 0 mm | - | 0 W/m² | - |
| 1778125815 | 2.78° C | 62% | 1008.7 hPa | 0 mm | - | 0 W/m² | - |
| 1778125512 | 2.78° C | 63% | 1008.7 hPa | 0 mm | - | 0 W/m² | - |
* Rain latest hour (hover to see other rain measurements)
** Current wind speed in m/s (hover to see current wind gust speed)